| time (UTC) | temp F | wind direction | speed knots | gust knots | rain 1hr in | rain 24hr in | rain mn in | humidity % | barometer mb |
| 20260508050009 | 36 | 360 | 0.0 | 1.7 | 0.00 | 0.11 | 0.00 | 84 | 1006.1 |
| 20260508045503 | 36 | 360 | 0.0 | 2.6 | 0.00 | 0.11 | 0.00 | 82 | 1006.1 |
| 20260508045006 | 36 | 360 | 0.0 | 2.6 | 0.00 | 0.11 | 0.00 | 82 | 1006.1 |
| 20260508044510 | 35 | 360 | 0.0 | 1.7 | 0.00 | 0.11 | 0.00 | 83 | 1006.0 |
| 20260508044007 | 35 | 360 | 0.0 | 1.7 | 0.00 | 0.12 | 0.00 | 85 | 1006.1 |
| 20260508043508 | 35 | 360 | 0.0 | 1.7 | 0.00 | 0.12 | 0.00 | 85 | 1006.1 |
| 20260508043016 | 36 | 360 | 0.0 | 1.7 | 0.00 | 0.13 | 0.00 | 85 | 1006.1 |
| 20260508042507 | 36 | 360 | 0.0 | 1.7 | 0.00 | 0.14 | 0.00 | 84 | 1006.1 |
| 20260508042010 | 36 | 360 | 0.0 | 1.7 | 0.00 | 0.14 | 0.00 | 84 | 1006.2 |
| 20260508041519 | 36 | 360 | 0.0 | 1.7 | 0.00 | 0.16 | 0.00 | 84 | 1006.2 |
| 20260508041011 | 36 | 360 | 0.0 | 1.7 | 0.00 | 0.19 | 0.00 | 83 | 1006.3 |
| 20260508040509 | 36 | 360 | 0.0 | 1.7 | 0.00 | 0.19 | 0.00 | 83 | 1006.3 |
| 20260508040018 | 36 | 360 | 0.0 | 1.7 | 0.00 | 0.20 | 0.00 | 83 | 1006.4 |
| 20260508035504 | 36 | 360 | 0.0 | 1.7 | 0.00 | 0.20 | 0.20 | 82 | 1006.3 |
| 20260508035004 | 36 | 360 | 0.0 | 1.7 | 0.00 | 0.21 | 0.20 | 82 | 1006.4 |
| 20260508034508 | 36 | 360 | 0.0 | 1.7 | 0.00 | 0.22 | 0.20 | 81 | 1006.4 |
| 20260508034004 | 37 | 360 | 0.0 | 0.9 | 0.00 | 0.22 | 0.20 | 79 | 1006.4 |
| 20260508033507 | 37 | 360 | 0.0 | 1.7 | 0.00 | 0.23 | 0.20 | 79 | 1006.3 |
| 20260508033011 | 37 | 360 | 0.0 | 1.7 | 0.00 | 0.23 | 0.20 | 77 | 1006.4 |
| 20260508032512 | 38 | 360 | 0.0 | 1.7 | 0.00 | 0.24 | 0.20 | 77 | 1006.3 |
| 20260508032010 | 38 | 360 | 0.0 | 1.7 | 0.00 | 0.24 | 0.20 | 74 | 1006.4 |
| 20260508031519 | 38 | 360 | 0.0 | 1.7 | 0.00 | 0.25 | 0.20 | 75 | 1006.4 |
| 20260508031007 | 39 | 360 | 0.0 | 1.7 | 0.00 | 0.26 | 0.20 | 75 | 1006.4 |
| 20260508030511 | 39 | 360 | 0.0 | 1.7 | 0.00 | 0.27 | 0.20 | 75 | 1006.3 |
| 20260508030023 | 39 | 360 | 0.0 | 1.7 | 0.00 | 0.27 | 0.20 | 74 | 1006.3 |
| 20260508025511 | 39 | 360 | 0.0 | 1.7 | 0.00 | 0.28 | 0.20 | 74 | 1006.3 |
| 20260508025009 | 39 | 360 | 0.0 | 1.7 | 0.00 | 0.28 | 0.20 | 72 | 1006.2 |
| 20260508024530 | 40 | 360 | 0.0 | 1.7 | 0.00 | 0.28 | 0.20 | 72 | 1006.2 |
| 20260508024003 | 40 | 360 | 0.0 | 1.7 | 0.00 | 0.29 | 0.20 | 73 | 1006.2 |
| 20260508023507 | 41 | 360 | 0.0 | 1.7 | 0.00 | 0.30 | 0.20 | 72 | 1006.4 |
| 20260508023015 | 41 | 360 | 0.0 | 1.7 | 0.00 | 0.30 | 0.20 | 68 | 1006.4 |
| 20260508022504 | 42 | 360 | 0.0 | 1.7 | 0.00 | 0.31 | 0.20 | 67 | 1006.4 |
| 20260508022007 | 43 | 360 | 0.0 | 2.6 | 0.00 | 0.32 | 0.20 | 63 | 1006.4 |
| 20260508021516 | 43 | 360 | 0.9 | 2.6 | 0.00 | 0.33 | 0.20 | 59 | 1006.3 |
| 20260508021007 | 44 | 360 | 0.0 | 1.7 | 0.00 | 0.34 | 0.20 | 57 | 1006.3 |
| 20260508020509 | 44 | 360 | 0.0 | 5.2 | 0.00 | 0.36 | 0.20 | 59 | 1006.3 |
| 20260508020021 | 44 | 360 | 1.7 | 5.2 | 0.00 | 0.38 | 0.20 | 54 | 1006.3 |
| 20260508015507 | 44 | 360 | 1.7 | 5.2 | 0.00 | 0.41 | 0.20 | 54 | 1006.3 |
| 20260508015007 | 44 | 360 | 0.9 | 7.0 | 0.00 | 0.41 | 0.20 | 56 | 1006.3 |
| 20260508014522 | 44 | 360 | 0.9 | 7.0 | 0.00 | 0.42 | 0.20 | 57 | 1006.3 |
| 20260508014011 | 43 | 360 | 0.9 | 2.6 | 0.00 | 0.43 | 0.20 | 57 | 1006.3 |
| 20260508013510 | 44 | 360 | 0.0 | 1.7 | 0.00 | 0.44 | 0.20 | 57 | 1006.3 |
| 20260508013026 | 44 | 360 | 0.0 | 1.7 | 0.00 | 0.45 | 0.20 | 56 | 1006.2 |
| 20260508012503 | 44 | 360 | 0.9 | 4.3 | 0.00 | 0.46 | 0.20 | 57 | 1006.2 |
| 20260508012007 | 45 | 360 | 0.0 | 4.3 | 0.00 | 0.48 | 0.20 | 58 | 1006.2 |
| 20260508011517 | 45 | 360 | 0.9 | 3.5 | 0.00 | 0.48 | 0.20 | 54 | 1006.2 |
| 20260508011010 | 45 | 360 | 0.0 | 2.6 | 0.00 | 0.48 | 0.20 | 53 | 1006.1 |
| 20260508010507 | 46 | 360 | 0.0 | 2.6 | 0.00 | 0.48 | 0.20 | 59 | 1006.2 |
| 20260508010018 | 46 | 360 | 0.9 | 2.6 | 0.00 | 0.48 | 0.20 | 50 | 1006.2 |
| 20260508005508 | 46 | 360 | 0.9 | 2.6 | 0.00 | 0.48 | 0.20 | 54 | 1006.2 |
| 20260508005007 | 47 | 360 | 0.9 | 4.3 | 0.00 | 0.48 | 0.20 | 54 | 1006.1 |
| 20260508004527 | 47 | 360 | 0.0 | 4.3 | 0.00 | 0.48 | 0.20 | 53 | 1006.1 |
| 20260508004009 | 47 | 360 | 0.9 | 10.4 | 0.00 | 0.49 | 0.20 | 51 | 1005.9 |
| 20260508003508 | 47 | 360 | 3.5 | 10.4 | 0.00 | 0.49 | 0.20 | 51 | 1005.8 |
| 20260508003024 | 48 | 360 | 2.6 | 7.8 | 0.00 | 0.49 | 0.20 | 49 | 1005.7 |
| 20260508002510 | 48 | 360 | 1.7 | 10.4 | 0.00 | 0.49 | 0.20 | 50 | 1005.7 |
| 20260508002009 | 48 | 360 | 1.7 | 10.4 | 0.00 | 0.49 | 0.20 | 51 | 1005.7 |
| 20260508001527 | 48 | 360 | 3.5 | 7.0 | 0.00 | 0.49 | 0.20 | 53 | 1005.5 |
| 20260508001007 | 48 | 360 | 2.6 | 7.0 | 0.00 | 0.49 | 0.20 | 51 | 1005.4 |
| 20260508000505 | 48 | 360 | 2.6 | 11.3 | 0.00 | 0.49 | 0.20 | 50 | 1005.5 |
| 20260508000012 | 48 | 360 | 3.5 | 11.3 | 0.00 | 0.49 | 0.20 | 51 | 1005.4 |
| 20260507235507 | 49 | 360 | 3.5 | 11.3 | 0.00 | 0.49 | 0.20 | 51 | 1005.4 |
| 20260507235006 | 49 | 360 | 3.5 | 10.4 | 0.00 | 0.49 | 0.20 | 51 | 1005.3 |
| 20260507234521 | 49 | 360 | 3.5 | 8.7 | 0.00 | 0.49 | 0.20 | 50 | 1005.3 |
| 20260507234010 | 50 | 360 | 2.6 | 13.9 | 0.00 | 0.49 | 0.20 | 50 | 1005.3 |
| 20260507233516 | 50 | 360 | 6.1 | 13.9 | 0.00 | 0.49 | 0.20 | 48 | 1005.2 |
| 20260507233025 | 50 | 360 | 3.5 | 10.4 | 0.00 | 0.49 | 0.20 | 48 | 1005.2 |
| 20260507232511 | 50 | 360 | 2.6 | 9.6 | 0.00 | 0.49 | 0.20 | 47 | 1005.1 |
| 20260507232010 | 51 | 360 | 3.5 | 12.2 | 0.00 | 0.49 | 0.20 | 47 | 1004.9 |
| 20260507231537 | 51 | 360 | 2.6 | 12.2 | 0.00 | 0.49 | 0.20 | 48 | 1004.8 |
| 20260507231014 | 51 | 360 | 6.1 | 13.0 | 0.00 | 0.49 | 0.20 | 46 | 1004.8 |
| 20260507230510 | 52 | 360 | 6.1 | 13.0 | 0.00 | 0.49 | 0.20 | 45 | 1004.6 |
| 20260507230029 | 52 | 360 | 3.5 | 9.6 | 0.00 | 0.49 | 0.20 | 47 | 1004.5 |
| 20260507225507 | 52 | 360 | 3.5 | 9.6 | 0.00 | 0.49 | 0.20 | 44 | 1004.3 |
| 20260507225007 | 53 | 360 | 2.6 | 13.0 | 0.00 | 0.49 | 0.20 | 44 | 1004.3 |
| 20260507224518 | 53 | 360 | 4.3 | 13.0 | 0.00 | 0.50 | 0.20 | 43 | 1004.2 |
| 20260507224008 | 54 | 360 | 2.6 | 8.7 | 0.00 | 0.51 | 0.20 | 45 | 1004.1 |
| 20260507223507 | 54 | 360 | 1.7 | 9.6 | 0.00 | 0.51 | 0.20 | 44 | 1004.1 |
| 20260507223020 | 55 | 360 | 2.6 | 9.6 | 0.00 | 0.52 | 0.20 | 42 | 1004.0 |
| 20260507222503 | 55 | 360 | 4.3 | 9.6 | 0.00 | 0.52 | 0.20 | 42 | 1003.9 |
| 20260507222002 | 56 | 360 | 3.5 | 11.3 | 0.00 | 0.52 | 0.20 | 44 | 1003.9 |
| 20260507221506 | 56 | 360 | 4.3 | 11.3 | 0.00 | 0.52 | 0.20 | 42 | 1003.9 |
| 20260507221001 | 56 | 360 | 5.2 | 11.3 | 0.00 | 0.54 | 0.20 | 44 | 1003.7 |
| 20260507220506 | 56 | 360 | 1.7 | 8.7 | 0.00 | 0.54 | 0.20 | 47 | 1003.7 |
| 20260507220012 | 56 | 360 | 1.7 | 8.7 | 0.00 | 0.55 | 0.20 | 45 | 1003.7 |
| 20260507215510 | 56 | 360 | 2.6 | 10.4 | 0.00 | 0.55 | 0.20 | 45 | 1003.6 |
| 20260507215004 | 56 | 360 | 0.9 | 10.4 | 0.00 | 0.56 | 0.20 | 48 | 1003.6 |
| 20260507214512 | 56 | 360 | 2.6 | 7.8 | 0.00 | 0.56 | 0.20 | 48 | 1003.6 |
| 20260507214007 | 56 | 360 | 1.7 | 9.6 | 0.00 | 0.56 | 0.20 | 45 | 1003.5 |
| 20260507213507 | 57 | 360 | 4.3 | 12.2 | 0.00 | 0.57 | 0.20 | 44 | 1003.4 |
| 20260507213026 | 58 | 17 | 5.2 | 12.2 | 0.00 | 0.58 | 0.20 | 43 | 1003.3 |
| 20260507212508 | 59 | 339 | 3.5 | 10.4 | 0.00 | 0.58 | 0.20 | 43 | 1003.2 |
| 20260507212004 | 60 | 360 | 3.5 | 9.6 | 0.00 | 0.58 | 0.20 | 40 | 1002.9 |
| 20260507211505 | 61 | 360 | 3.5 | 10.4 | 0.00 | 0.60 | 0.20 | 38 | 1002.9 |
| 20260507211004 | 61 | 360 | 4.3 | 9.6 | 0.00 | 0.61 | 0.20 | 37 | 1002.8 |
| 20260507210506 | 61 | 360 | 2.6 | 10.4 | 0.00 | 0.61 | 0.20 | 37 | 1002.8 |
| 20260507210006 | 61 | 360 | 2.6 | 10.4 | 0.00 | 0.62 | 0.20 | 38 | 1002.7 |
| 20260507205507 | 61 | 19 | 4.3 | 10.4 | 0.00 | 0.62 | 0.20 | 37 | 1002.7 |
| 20260507205009 | 62 | 360 | 4.3 | 10.4 | 0.00 | 0.63 | 0.20 | 35 | 1002.6 |
| 20260507204509 | 62 | 360 | 3.5 | 12.2 | 0.00 | 0.63 | 0.20 | 35 | 1002.5 |
| 20260507204004 | 62 | 360 | 1.7 | 13.9 | 0.00 | 0.63 | 0.20 | 34 | 1002.4 |
| 20260507203507 | 62 | 360 | 4.3 | 13.9 | 0.00 | 0.64 | 0.20 | 33 | 1002.4 |
| 20260507203014 | 63 | 360 | 4.3 | 9.6 | 0.00 | 0.64 | 0.20 | 34 | 1002.3 |
| 20260507202509 | 62 | 360 | 2.6 | 12.2 | 0.00 | 0.65 | 0.20 | 37 | 1002.4 |
| 20260507202009 | 63 | 19 | 3.5 | 13.9 | 0.00 | 0.66 | 0.20 | 38 | 1002.4 |
| 20260507201521 | 63 | 22 | 2.6 | 13.9 | 0.00 | 0.67 | 0.20 | 38 | 1002.3 |
| 20260507201007 | 64 | 360 | 2.6 | 7.8 | 0.00 | 0.67 | 0.20 | 42 | 1002.3 |
| 20260507200504 | 63 | 360 | 2.6 | 8.7 | 0.00 | 0.68 | 0.20 | 38 | 1002.3 |
| 20260507200006 | 63 | 96 | 1.7 | 8.7 | 0.00 | 0.69 | 0.20 | 39 | 1002.4 |
| 20260507195504 | 63 | 360 | 1.7 | 11.3 | 0.00 | 0.70 | 0.20 | 41 | 1002.5 |
| 20260507195002 | 62 | 292 | 3.5 | 11.3 | 0.00 | 0.71 | 0.20 | 41 | 1002.4 |
| 20260507194526 | 62 | 360 | 1.7 | 9.6 | 0.00 | 0.72 | 0.20 | 43 | 1002.4 |
| 20260507194007 | 62 | 360 | 4.3 | 9.6 | 0.00 | 0.73 | 0.20 | 47 | 1002.4 |
| 20260507193506 | 60 | 360 | 4.3 | 10.4 | 0.00 | 0.74 | 0.20 | 49 | 1002.4 |
| 20260507193018 | 60 | 360 | 2.6 | 10.4 | 0.00 | 0.75 | 0.20 | 45 | 1002.5 |
| 20260507192507 | 61 | 296 | 2.6 | 9.6 | 0.00 | 0.76 | 0.20 | 47 | 1002.5 |
| 20260507192011 | 61 | 284 | 1.7 | 9.6 | 0.00 | 0.77 | 0.20 | 49 | 1002.4 |
| 20260507191518 | 61 | 321 | 2.6 | 11.3 | 0.00 | 0.78 | 0.20 | 46 | 1002.5 |
| 20260507191007 | 61 | 148 | 2.6 | 11.3 | 0.00 | 0.79 | 0.20 | 47 | 1002.5 |
| 20260507190507 | 60 | 360 | 3.5 | 13.0 | 0.00 | 0.80 | 0.20 | 48 | 1002.5 |
| 20260507190024 | 60 | 360 | 3.5 | 13.0 | 0.00 | 0.81 | 0.20 | 46 | 1002.4 |
| 20260507185503 | 60 | 360 | 3.5 | 13.0 | 0.00 | 0.83 | 0.20 | 46 | 1002.4 |
| 20260507185003 | 61 | 360 | 2.6 | 10.4 | 0.00 | 0.85 | 0.20 | 47 | 1002.4 |
| 20260507184506 | 62 | 360 | 2.6 | 9.6 | 0.00 | 0.86 | 0.20 | 46 | 1002.4 |
| 20260507184006 | 62 | 30 | 2.6 | 7.8 | 0.00 | 0.87 | 0.20 | 47 | 1002.3 |
| 20260507183504 | 61 | 360 | 2.6 | 4.3 | 0.00 | 0.88 | 0.20 | 50 | 1002.4 |
| 20260507183028 | 60 | 360 | 1.7 | 8.7 | 0.00 | 0.90 | 0.20 | 49 | 1002.5 |
| 20260507182507 | 60 | 360 | 1.7 | 10.4 | 0.00 | 0.90 | 0.20 | 48 | 1002.6 |
| 20260507182012 | 60 | 360 | 3.5 | 10.4 | 0.00 | 0.91 | 0.20 | 48 | 1002.6 |
| 20260507181527 | 60 | 360 | 1.7 | 7.0 | 0.00 | 0.92 | 0.20 | 50 | 1002.7 |
| 20260507181008 | 60 | 360 | 2.6 | 8.7 | 0.00 | 0.93 | 0.20 | 50 | 1002.6 |
| 20260507180505 | 60 | 360 | 2.6 | 8.7 | 0.00 | 0.93 | 0.20 | 51 | 1002.6 |
| 20260507180033 | 60 | 360 | 2.6 | 8.7 | 0.00 | 0.93 | 0.20 | 51 | 1002.7 |
| 20260507175509 | 60 | 360 | 2.6 | 7.8 | 0.00 | 0.94 | 0.20 | 49 | 1002.7 |
| 20260507175009 | 61 | 360 | 1.7 | 8.7 | 0.00 | 0.95 | 0.20 | 46 | 1002.7 |
| 20260507174532 | 62 | 360 | 3.5 | 8.7 | 0.00 | 0.95 | 0.20 | 48 | 1002.6 |
| 20260507174004 | 62 | 360 | 3.5 | 7.8 | 0.00 | 0.95 | 0.20 | 47 | 1002.6 |
| 20260507173505 | 61 | 55 | 1.7 | 5.2 | 0.00 | 0.95 | 0.20 | 49 | 1002.8 |
| 20260507173010 | 59 | 360 | 2.6 | 5.2 | 0.00 | 0.95 | 0.20 | 59 | 1002.9 |
| 20260507172506 | 59 | 360 | 0.9 | 4.3 | 0.00 | 0.95 | 0.20 | 53 | 1002.9 |
| 20260507172008 | 59 | 360 | 0.9 | 4.3 | 0.00 | 0.95 | 0.20 | 52 | 1002.9 |
| 20260507171513 | 59 | 360 | 1.7 | 3.5 | 0.00 | 0.95 | 0.20 | 53 | 1003.0 |
| 20260507171009 | 60 | 360 | 1.7 | 5.2 | 0.00 | 0.95 | 0.20 | 53 | 1003.1 |
| 20260507170506 | 60 | 199 | 1.7 | 7.0 | 0.00 | 0.96 | 0.20 | 52 | 1003.1 |
| 20260507170021 | 60 | 140 | 0.9 | 7.0 | 0.00 | 0.96 | 0.20 | 52 | 1003.1 |
| 20260507165506 | 61 | 360 | 1.7 | 8.7 | 0.00 | 0.96 | 0.20 | 52 | 1003.1 |
| 20260507165007 | 61 | 360 | 1.7 | 8.7 | 0.00 | 0.96 | 0.20 | 51 | 1003.1 |
| 20260507164520 | 62 | 360 | 2.6 | 7.8 | 0.00 | 0.96 | 0.20 | 51 | 1003.1 |
| 20260507164009 | 61 | 360 | 1.7 | 5.2 | 0.00 | 0.97 | 0.20 | 51 | 1003.1 |
| 20260507163507 | 61 | 360 | 1.7 | 9.6 | 0.00 | 0.97 | 0.20 | 51 | 1003.3 |
| 20260507163026 | 61 | 360 | 2.6 | 9.6 | 0.00 | 0.97 | 0.20 | 54 | 1003.3 |
| 20260507162506 | 61 | 360 | 0.9 | 7.8 | 0.00 | 0.97 | 0.20 | 51 | 1003.4 |
| 20260507162006 | 61 | 360 | 3.5 | 7.8 | 0.00 | 0.97 | 0.20 | 53 | 1003.4 |
| 20260507161523 | 60 | 360 | 1.7 | 7.0 | 0.00 | 0.97 | 0.20 | 53 | 1003.4 |
| 20260507161007 | 60 | 360 | 1.7 | 7.0 | 0.00 | 0.97 | 0.20 | 51 | 1003.6 |
| 20260507160510 | 60 | 328 | 1.7 | 5.2 | 0.00 | 0.97 | 0.20 | 57 | 1003.6 |
| 20260507160024 | 59 | 198 | 0.9 | 5.2 | 0.00 | 0.97 | 0.20 | 60 | 1003.8 |
| 20260507155505 | 58 | 238 | 1.7 | 5.2 | 0.00 | 0.97 | 0.20 | 57 | 1004.0 |
| 20260507155011 | 58 | 360 | 1.7 | 3.5 | 0.00 | 0.97 | 0.20 | 58 | 1004.1 |
| 20260507154530 | 58 | 360 | 1.7 | 3.5 | 0.00 | 0.97 | 0.20 | 59 | 1004.1 |
| 20260507154011 | 58 | 360 | 1.7 | 3.5 | 0.00 | 0.97 | 0.20 | 58 | 1004.0 |
| 20260507153510 | 57 | 360 | 0.0 | 2.6 | 0.00 | 0.97 | 0.20 | 62 | 1004.1 |
| 20260507153025 | 57 | 360 | 0.9 | 3.5 | 0.00 | 0.97 | 0.20 | 62 | 1004.2 |
| 20260507152511 | 57 | 360 | 0.9 | 3.5 | 0.00 | 0.97 | 0.20 | 62 | 1004.2 |
| 20260507152009 | 58 | 351 | 0.9 | 3.5 | 0.00 | 0.97 | 0.20 | 61 | 1004.2 |
| 20260507151537 | 58 | 360 | 1.7 | 3.5 | 0.00 | 0.97 | 0.20 | 61 | 1004.1 |
| 20260507151006 | 58 | 244 | 0.9 | 3.5 | 0.00 | 0.97 | 0.20 | 62 | 1004.2 |
| 20260507150507 | 58 | 178 | 0.9 | 3.5 | 0.00 | 0.97 | 0.20 | 62 | 1004.4 |
| 20260507150015 | 58 | 301 | 0.9 | 2.6 | 0.00 | 0.97 | 0.20 | 62 | 1004.5 |
| 20260507145506 | 58 | 360 | 0.9 | 2.6 | 0.00 | 0.97 | 0.20 | 60 | 1004.5 |
| 20260507145007 | 59 | 360 | 0.9 | 2.6 | 0.00 | 0.97 | 0.20 | 59 | 1004.5 |
| 20260507144521 | 59 | 360 | 0.9 | 2.6 | 0.00 | 0.97 | 0.20 | 61 | 1004.5 |
| 20260507144009 | 59 | 20 | 0.9 | 3.5 | 0.00 | 0.97 | 0.20 | 63 | 1004.5 |
| 20260507143510 | 58 | 72 | 0.9 | 2.6 | 0.00 | 0.97 | 0.20 | 62 | 1004.6 |
| 20260507143023 | 58 | 360 | 0.9 | 2.6 | 0.00 | 0.97 | 0.20 | 66 | 1004.7 |
| 20260507142510 | 57 | 360 | 0.9 | 2.6 | 0.00 | 0.97 | 0.20 | 72 | 1004.7 |
| 20260507142010 | 57 | 360 | 0.9 | 2.6 | 0.00 | 0.97 | 0.20 | 67 | 1004.7 |
| 20260507141530 | 56 | 360 | 0.9 | 2.6 | 0.00 | 0.97 | 0.20 | 66 | 1004.8 |
| 20260507141012 | 56 | 360 | 0.9 | 2.6 | 0.00 | 0.97 | 0.20 | 66 | 1004.8 |
| 20260507140511 | 56 | 360 | 0.9 | 2.6 | 0.00 | 0.97 | 0.20 | 69 | 1004.9 |
| 20260507140027 | 55 | 360 | 1.7 | 3.5 | 0.00 | 0.97 | 0.20 | 74 | 1005.0 |
| 20260507135506 | 55 | 360 | 1.7 | 4.3 | 0.00 | 0.97 | 0.20 | 71 | 1005.0 |
| 20260507135009 | 54 | 360 | 0.9 | 5.2 | 0.00 | 0.97 | 0.20 | 72 | 1005.0 |
| 20260507134529 | 54 | 360 | 0.9 | 5.2 | 0.00 | 0.97 | 0.20 | 74 | 1005.0 |
| 20260507134007 | 53 | 360 | 0.9 | 5.2 | 0.00 | 0.97 | 0.20 | 75 | 1005.0 |
| 20260507133512 | 53 | 360 | 1.7 | 7.0 | 0.00 | 0.97 | 0.20 | 75 | 1005.1 |
| 20260507133024 | 53 | 360 | 1.7 | 7.0 | 0.00 | 0.97 | 0.20 | 74 | 1005.1 |
| 20260507132503 | 52 | 360 | 0.9 | 5.2 | 0.00 | 0.97 | 0.20 | 75 | 1005.1 |
| 20260507132003 | 52 | 360 | 1.7 | 9.6 | 0.00 | 0.97 | 0.20 | 75 | 1005.0 |
| 20260507131517 | 52 | 360 | 0.9 | 9.6 | 0.00 | 0.97 | 0.20 | 78 | 1005.1 |
| 20260507131003 | 52 | 360 | 1.7 | 7.0 | 0.01 | 0.97 | 0.20 | 75 | 1005.1 |
| 20260507130508 | 51 | 360 | 1.7 | 7.0 | 0.01 | 0.97 | 0.20 | 76 | 1005.1 |
| 20260507130012 | 51 | 360 | 2.6 | 7.0 | 0.01 | 0.97 | 0.20 | 77 | 1005.3 |
| 20260507125509 | 51 | 360 | 3.5 | 7.0 | 0.01 | 0.97 | 0.20 | 77 | 1005.4 |
| 20260507125011 | 51 | 360 | 0.9 | 7.0 | 0.01 | 0.97 | 0.20 | 79 | 1005.2 |
| 20260507124517 | 50 | 360 | 3.5 | 7.0 | 0.01 | 0.97 | 0.20 | 78 | 1005.1 |
| 20260507124006 | 51 | 360 | 3.5 | 7.0 | 0.01 | 0.97 | 0.20 | 78 | 1005.2 |
| 20260507123510 | 50 | 360 | 2.6 | 7.0 | 0.01 | 0.97 | 0.20 | 80 | 1005.3 |
| 20260507123021 | 50 | 360 | 1.7 | 4.3 | 0.01 | 0.97 | 0.20 | 80 | 1005.3 |
| 20260507122504 | 50 | 360 | 1.7 | 4.3 | 0.01 | 0.97 | 0.20 | 85 | 1005.5 |
| 20260507122003 | 50 | 360 | 0.9 | 3.5 | 0.01 | 0.97 | 0.20 | 84 | 1005.7 |
| 20260507121507 | 49 | 360 | 0.9 | 3.5 | 0.01 | 0.97 | 0.20 | 87 | 1005.9 |
| 20260507121003 | 48 | 360 | 0.9 | 5.2 | 0.00 | 0.96 | 0.19 | 85 | 1005.9 |
| 20260507120507 | 48 | 360 | 2.6 | 5.2 | 0.00 | 0.96 | 0.19 | 85 | 1006.0 |
| 20260507120010 | 47 | 360 | 2.6 | 7.0 | 0.00 | 0.96 | 0.19 | 86 | 1005.9 |
| 20260507115506 | 47 | 360 | 1.7 | 7.0 | 0.00 | 0.96 | 0.19 | 87 | 1005.8 |
| 20260507115007 | 47 | 360 | 3.5 | 7.0 | 0.00 | 0.96 | 0.19 | 88 | 1005.6 |
| 20260507114525 | 47 | 360 | 0.9 | 4.3 | 0.00 | 0.96 | 0.19 | 89 | 1005.5 |
| 20260507114007 | 47 | 360 | 0.9 | 4.3 | 0.00 | 0.96 | 0.19 | 89 | 1005.6 |
| 20260507113507 | 46 | 360 | 1.7 | 4.3 | 0.00 | 0.96 | 0.19 | 90 | 1005.7 |
| 20260507113019 | 46 | 360 | 0.9 | 2.6 | 0.00 | 0.96 | 0.19 | 92 | 1005.8 |
| 20260507112508 | 46 | 360 | 0.0 | 2.6 | 0.00 | 0.96 | 0.19 | 92 | 1005.8 |
| 20260507112011 | 45 | 360 | 0.9 | 1.7 | 0.00 | 0.96 | 0.19 | 94 | 1005.8 |
| 20260507111524 | 45 | 360 | 0.9 | 1.7 | 0.00 | 0.96 | 0.19 | 94 | 1005.8 |
| 20260507111003 | 45 | 360 | 0.9 | 1.7 | 0.00 | 0.96 | 0.19 | 93 | 1005.7 |
| 20260507110503 | 45 | 360 | 0.9 | 1.7 | 0.00 | 0.96 | 0.19 | 94 | 1005.5 |
| 20260507110005 | 45 | 360 | 0.9 | 1.7 | 0.00 | 0.96 | 0.19 | 94 | 1005.7 |
| 20260507105503 | 45 | 360 | 0.0 | 1.7 | 0.00 | 0.96 | 0.19 | 94 | 1005.8 |
| 20260507105004 | 44 | 360 | 0.0 | 1.7 | 0.00 | 0.96 | 0.19 | 94 | 1005.9 |
| 20260507104512 | 44 | 360 | 0.0 | 1.7 | 0.00 | 0.96 | 0.19 | 94 | 1005.7 |
| 20260507104006 | 44 | 360 | 0.0 | 1.7 | 0.00 | 0.96 | 0.19 | 94 | 1005.7 |
| 20260507103507 | 44 | 360 | 0.9 | 1.7 | 0.00 | 0.96 | 0.19 | 94 | 1005.6 |
| 20260507103016 | 43 | 360 | 0.0 | 2.6 | 0.00 | 0.96 | 0.19 | 94 | 1005.5 |
| 20260507102507 | 43 | 360 | 0.9 | 2.6 | 0.00 | 0.96 | 0.19 | 94 | 1005.4 |
| 20260507102010 | 43 | 360 | 0.0 | 2.6 | 0.00 | 0.96 | 0.19 | 94 | 1005.4 |
| 20260507101531 | 43 | 360 | 0.0 | 2.6 | 0.00 | 0.96 | 0.19 | 95 | 1005.5 |
| 20260507101009 | 43 | 360 | 0.0 | 2.6 | 0.00 | 0.96 | 0.19 | 95 | 1005.5 |
| 20260507100507 | 43 | 360 | 0.9 | 2.6 | 0.00 | 0.96 | 0.19 | 95 | 1005.6 |
| 20260507100023 | 43 | 360 | 0.0 | 1.7 | 0.00 | 0.96 | 0.19 | 95 | 1005.4 |
| 20260507095511 | 43 | 360 | 0.0 | 1.7 | 0.00 | 0.96 | 0.19 | 95 | 1005.3 |
| 20260507095002 | 43 | 360 | 0.0 | 1.7 | 0.00 | 0.96 | 0.19 | 95 | 1005.1 |
| 20260507094507 | 43 | 360 | 0.9 | 1.7 | 0.00 | 0.96 | 0.19 | 95 | 1005.1 |
| 20260507094005 | 43 | 360 | 0.0 | 1.7 | 0.00 | 0.96 | 0.19 | 95 | 1005.2 |
| 20260507093506 | 43 | 360 | 0.0 | 1.7 | 0.00 | 0.96 | 0.19 | 95 | 1005.3 |
| 20260507093015 | 43 | 360 | 0.0 | 1.7 | 0.00 | 0.96 | 0.19 | 95 | 1005.4 |
| 20260507092506 | 43 | 360 | 0.0 | 1.7 | 0.01 | 0.96 | 0.19 | 95 | 1005.4 |
| 20260507092011 | 43 | 360 | 0.0 | 1.7 | 0.01 | 0.96 | 0.19 | 95 | 1005.3 |
| 20260507091520 | 43 | 360 | 0.0 | 1.7 | 0.01 | 0.96 | 0.19 | 95 | 1005.5 |
| 20260507091009 | 43 | 360 | 0.0 | 1.7 | 0.01 | 0.96 | 0.19 | 95 | 1005.6 |
| 20260507090508 | 43 | 360 | 0.0 | 1.7 | 0.01 | 0.96 | 0.19 | 95 | 1005.1 |
| 20260507090034 | 43 | 360 | 0.0 | 0.0 | 0.01 | 0.96 | 0.19 | 95 | 1004.8 |
| 20260507085508 | 43 | 360 | 0.0 | 0.0 | 0.01 | 0.96 | 0.19 | 95 | 1004.8 |
| 20260507085009 | 44 | 360 | 0.0 | 0.0 | 0.01 | 0.96 | 0.19 | 95 | 1004.5 |
| 20260507084534 | 44 | 360 | 0.0 | 1.7 | 0.01 | 0.96 | 0.19 | 95 | 1004.5 |
| 20260507084009 | 44 | 360 | 0.0 | 1.7 | 0.01 | 0.96 | 0.19 | 95 | 1004.8 |
| 20260507083505 | 44 | 360 | 0.0 | 1.7 | 0.01 | 0.96 | 0.19 | 95 | 1005.0 |
| 20260507083010 | 44 | 360 | 0.0 | 1.7 | 0.01 | 0.96 | 0.19 | 95 | 1005.3 |
| 20260507082507 | 44 | 360 | 0.0 | 1.7 | 0.00 | 0.95 | 0.18 | 95 | 1005.2 |
| 20260507082007 | 44 | 360 | 0.0 | 1.7 | 0.00 | 0.95 | 0.18 | 95 | 1005.2 |
| 20260507081520 | 44 | 360 | 0.0 | 1.7 | 0.00 | 0.95 | 0.18 | 95 | 1005.2 |
| 20260507081007 | 44 | 360 | 0.0 | 1.7 | 0.00 | 0.95 | 0.18 | 94 | 1005.3 |
| 20260507080510 | 44 | 360 | 0.0 | 1.7 | 0.00 | 0.95 | 0.18 | 94 | 1005.4 |
| 20260507080027 | 44 | 360 | 0.0 | 1.7 | 0.00 | 0.95 | 0.18 | 94 | 1005.4 |
| 20260507075509 | 44 | 360 | 0.0 | 1.7 | 0.00 | 0.95 | 0.18 | 93 | 1005.2 |
| 20260507075010 | 44 | 360 | 0.0 | 1.7 | 0.00 | 0.95 | 0.18 | 94 | 1005.0 |
| 20260507074537 | 45 | 360 | 0.0 | 1.7 | 0.00 | 0.95 | 0.18 | 94 | 1004.8 |
| 20260507074011 | 45 | 360 | 0.0 | 1.7 | 0.00 | 0.95 | 0.18 | 94 | 1004.8 |
| 20260507073510 | 45 | 360 | 0.0 | 1.7 | 0.00 | 0.95 | 0.18 | 94 | 1005.0 |
| 20260507073024 | 45 | 360 | 0.0 | 1.7 | 0.00 | 0.95 | 0.18 | 94 | 1004.9 |
| 20260507072510 | 45 | 360 | 0.0 | 1.7 | 0.00 | 0.95 | 0.18 | 93 | 1005.0 |
| 20260507072009 | 45 | 360 | 0.0 | 1.7 | 0.00 | 0.95 | 0.18 | 93 | 1005.0 |
| 20260507071503 | 45 | 360 | 0.0 | 1.7 | 0.00 | 0.95 | 0.18 | 93 | 1004.7 |
| 20260507071003 | 45 | 360 | 0.9 | 3.5 | 0.00 | 0.95 | 0.18 | 93 | 1004.7 |
| 20260507070503 | 45 | 360 | 0.9 | 3.5 | 0.00 | 0.95 | 0.18 | 93 | 1004.6 |
| 20260507070010 | 45 | 360 | 0.9 | 4.3 | 0.00 | 0.95 | 0.18 | 93 | 1004.4 |
| 20260507065503 | 45 | 360 | 0.9 | 4.3 | 0.01 | 0.95 | 0.18 | 93 | 1004.6 |
| 20260507065004 | 45 | 360 | 1.7 | 5.2 | 0.01 | 0.95 | 0.18 | 93 | 1004.6 |
| 20260507064504 | 45 | 360 | 0.9 | 5.2 | 0.01 | 0.95 | 0.18 | 93 | 1004.7 |
| 20260507064003 | 45 | 360 | 1.7 | 5.2 | 0.02 | 0.95 | 0.18 | 93 | 1004.7 |
| 20260507063504 | 46 | 360 | 0.9 | 2.6 | 0.03 | 0.95 | 0.18 | 93 | 1004.7 |
| 20260507063006 | 46 | 360 | 0.9 | 2.6 | 0.03 | 0.95 | 0.18 | 93 | 1004.3 |
| 20260507062503 | 46 | 360 | 0.9 | 2.6 | 0.04 | 0.95 | 0.18 | 93 | 1004.4 |
| 20260507062002 | 46 | 360 | 0.0 | 3.5 | 0.06 | 0.95 | 0.18 | 93 | 1004.3 |
| 20260507061504 | 46 | 360 | 1.7 | 4.3 | 0.07 | 0.95 | 0.18 | 93 | 1004.3 |
| 20260507061004 | 46 | 360 | 1.7 | 4.3 | 0.08 | 0.95 | 0.18 | 93 | 1004.1 |
| 20260507060504 | 46 | 360 | 0.9 | 5.2 | 0.08 | 0.95 | 0.18 | 93 | 1004.1 |
| 20260507060004 | 46 | 360 | 1.7 | 7.8 | 0.09 | 0.95 | 0.18 | 93 | 1004.0 |
| 20260507055503 | 46 | 360 | 3.5 | 8.7 | 0.08 | 0.94 | 0.17 | 93 | 1004.1 |
| 20260507055003 | 46 | 360 | 1.7 | 8.7 | 0.08 | 0.94 | 0.17 | 94 | 1004.2 |
| 20260507054505 | 47 | 360 | 0.9 | 5.2 | 0.08 | 0.94 | 0.17 | 94 | 1004.5 |
| 20260507054003 | 47 | 360 | 1.7 | 4.3 | 0.08 | 0.93 | 0.16 | 94 | 1004.5 |
| 20260507053505 | 47 | 360 | 0.9 | 4.3 | 0.07 | 0.92 | 0.15 | 94 | 1004.4 |
| 20260507053005 | 47 | 360 | 2.6 | 3.5 | 0.08 | 0.92 | 0.15 | 94 | 1004.4 |
| 20260507052503 | 47 | 360 | 1.7 | 4.3 | 0.08 | 0.91 | 0.14 | 94 | 1004.6 |
| 20260507052005 | 47 | 360 | 0.9 | 5.2 | 0.06 | 0.89 | 0.12 | 94 | 1004.6 |
| 20260507051506 | 47 | 360 | 1.7 | 5.2 | 0.07 | 0.88 | 0.11 | 94 | 1004.6 |
| 20260507051002 | 47 | 360 | 1.7 | 4.3 | 0.09 | 0.87 | 0.10 | 94 | 1004.7 |
| 20260507050503 | 47 | 360 | 0.9 | 4.3 | 0.09 | 0.87 | 0.10 | 94 | 1004.3 |